GW6141 Weather Reports


time (UTC)temp
F
wind
direction
speed
knots
gust
knots
rain 1hr
in
rain 24hr
in
rain mn
in
humidity
%
barometer
mb
20260506150024 61 180 0.0 2.6 0.03 0.07 0.07 73 1010.8
20260506144525 61 265 0.0 4.3 0.03 0.07 0.07 72 1010.8
20260506143019 61 281 0.9 7.8 0.04 0.07 0.07 74 1011.1
20260506141517 61 328 0.0 3.5 0.03 0.06 0.06 77 1010.9
20260506140029 61 241 0.0 2.6 0.01 0.04 0.04 77 1011.0
20260506134512 61 288 0.0 7.8 0.01 0.04 0.04 79 1011.0
20260506133016 61 0.0 0.0 0.00 0.03 0.03 79 1010.8
20260506131532 61 0.0 0.0 0.01 0.03 0.03 76 1010.9
20260506130024 61 0.0 0.0 0.03 0.03 0.03 74 1011.0
20260506124527 60 0.0 0.0 0.03 0.03 0.03 76 1011.0
20260506123013 61 0.0 0.0 0.03 0.03 0.03 81 1010.7
20260506121515 62 0.0 0.0 0.02 0.02 0.02 82 1010.7
20260506120022 63 0.0 0.0 0.00 0.00 0.00 78 1011.0
20260506114531 63 0.0 0.0 0.00 0.00 0.00 75 1010.7
20260506113037 63 0.0 0.0 0.00 0.00 0.00 75 1010.4
20260506111516 63 0.0 0.0 0.00 0.00 0.00 75 1010.2
20260506110020 63 0.0 0.0 0.00 0.00 0.00 75 1009.9
20260506104525 63 0.0 0.0 0.00 0.00 0.00 75 1009.8
20260506103028 63 0.0 0.0 0.00 0.00 0.00 75 1010.0
20260506101530 63 0.0 0.0 0.00 0.00 0.00 75 1010.1
20260506100018 63 0.0 0.0 0.00 0.00 0.00 74 1010.1
20260506094522 63 0.0 0.0 0.00 0.00 0.00 74 1010.0
20260506093024 63 0.0 0.0 0.00 0.00 0.00 74 1010.3
20260506091526 63 0.0 0.0 0.00 0.00 0.00 75 1010.2
20260506090021 63 0.0 0.0 0.00 0.00 0.00 75 1010.3
20260506084521 62 0.0 0.0 0.00 0.00 0.00 77 1010.4
20260506083023 61 0.0 0.0 0.00 0.00 0.00 79 1010.5
20260506081527 60 0.0 0.0 0.00 0.00 0.00 80 1010.6
20260506073022 60 0.0 0.0 0.00 0.00 0.00 76 1010.9
20260506071526 60 0.0 0.0 0.00 0.00 0.00 75 1011.0
20260506061522 64 0.0 0.0 0.00 0.00 0.00 66 1011.3
20260506044510 64 0.0 0.0 0.00 0.00 0.00 60 1011.5
20260506043014 64 0.0 0.0 0.00 0.00 0.00 60 1011.3
20260506041520 65 0.0 0.0 0.00 0.00 0.00 59 1011.3
20260506040024 65 0.0 0.0 0.00 0.00 0.00 59 1011.4
20260506034517 64 0.0 0.0 0.00 0.00 0.00 61 1011.4
20260506033011 63 0.0 0.0 0.00 0.00 0.00 63 1011.5
20260506031519 63 0.0 0.0 0.00 0.00 0.00 63 1011.5
20260506030034 63 0.0 0.0 0.00 0.00 0.00 64 1011.5
20260506024550 63 0.0 0.0 0.00 0.00 0.00 62 1011.6
20260506023012 64 0.0 0.0 0.00 0.00 0.00 61 1011.8
20260506021532 64 0.0 0.0 0.00 0.00 0.00 59 1011.8
20260506020028 65 0.0 0.0 0.00 0.00 0.00 57 1011.6
20260506014522 66 0.0 0.0 0.00 0.00 0.00 55 1011.4
20260506013009 67 0.0 0.0 0.00 0.00 0.00 53 1011.4
20260506011512 68 252 0.0 0.0 0.00 0.00 0.00 50 1011.2
20260506010030 70 252 0.0 0.0 0.00 0.00 0.00 47 1011.2
20260506004506 71 252 0.0 0.0 0.00 0.00 0.00 44 1011.1
20260506003028 73 257 0.0 2.6 0.00 0.00 0.00 42 1010.9
20260506001510 74 285 0.0 3.5 0.00 0.00 0.00 41 1010.8
20260506000022 74 269 0.9 7.0 0.00 0.00 0.00 39 1010.7
20260505234517 75 85 0.0 6.1 0.00 0.00 0.00 38 1010.5
20260505233025 76 254 0.0 1.7 0.00 0.00 0.00 38 1010.5
20260505231525 77 0.0 0.0 0.00 0.00 0.00 36 1010.3
20260505230027 77 0.0 0.0 0.00 0.00 0.00 36 1010.5
20260505224518 78 0.0 0.0 0.00 0.00 0.00 35 1010.7
20260505223027 78 0.0 0.0 0.00 0.00 0.00 35 1010.9
20260505221523 78 0.0 0.0 0.00 0.00 0.00 35 1010.9
20260505220030 79 0.0 0.0 0.00 0.00 0.00 34 1010.8
20260505214512 79 0.0 0.0 0.00 0.00 0.00 32 1010.6
20260505213021 79 0.0 0.0 0.00 0.00 0.00 34 1010.6
20260505211522 79 0.0 0.0 0.00 0.00 0.00 34 1010.7
20260505210026 80 0.0 0.0 0.00 0.00 0.00 32 1010.7
20260505204530 81 0.0 0.0 0.00 0.00 0.00 31 1010.6
20260505203017 81 0.0 0.0 0.00 0.00 0.00 31 1010.7
20260505201522 82 0.0 0.0 0.00 0.00 0.00 31 1010.8
20260505200032 81 0.0 0.0 0.00 0.00 0.00 31 1011.0
20260505194526 80 0.0 0.0 0.00 0.00 0.00 30 1011.2
20260505193013 80 0.0 0.0 0.00 0.00 0.00 30 1011.4
20260505191520 81 0.0 0.0 0.00 0.00 0.00 29 1011.5
20260505190024 81 0.0 0.0 0.00 0.00 0.00 28 1011.6
20260505184506 81 0.0 0.0 0.00 0.00 0.00 29 1011.7
20260505183011 81 0.0 0.0 0.00 0.00 0.00 30 1011.8
20260505181519 81 0.0 0.0 0.00 0.00 0.00 33 1012.0
20260505180023 81 1.7 8.7 0.00 0.00 0.00 34 1012.1
20260505174521 81 159 0.9 8.7 0.00 0.00 0.00 44 1012.4
20260505173023 81 146 0.9 9.6 0.00 0.00 0.00 35 1012.6
20260505171512 80 309 1.7 8.7 0.00 0.00 0.00 35 1012.7
20260505170025 79 222 1.7 9.6 0.00 0.00 0.00 42 1012.9
20260505164544 79 245 0.9 7.8 0.00 0.00 0.00 38 1013.0
20260505163023 79 288 3.5 9.6 0.00 0.00 0.00 39 1013.1
20260505161510 78 276 2.6 9.6 0.00 0.00 0.00 40 1013.4
20260505153023 77 294 0.9 7.0 0.00 0.00 0.00 47 1013.7
20260505151526 75 350 2.6 0.0 0.00 0.00 0.00 44 1013.6